FW8522 Weather Reports


time (UTC)temp
C
wind
direction
speed
KPH
gust
KPH
rain 1hr
cm
rain 24hr
cm
rain mn
cm
humidity
%
barometer
mb
20260504081557 21 58 8.0 17.7 0.00 0.00 0.00 79 1017.0
20260504044528 22 44 9.7 19.3 0.00 0.08 0.00 76 1018.3
20260504043026 22 98 9.7 16.1 0.00 0.08 0.00 77 1018.2
20260504041538 22 88 4.8 17.7 0.00 0.08 0.00 76 1018.5
20260504040022 22 90 9.7 19.3 0.00 0.08 0.00 76 1018.8
20260504034520 22 46 12.9 19.3 0.00 0.10 0.08 76 1018.8
20260504033019 22 101 9.7 19.3 0.00 0.10 0.08 75 1018.8
20260504031518 22 67 11.3 20.9 0.00 0.10 0.08 75 1018.7
20260504030020 22 106 14.5 24.1 0.00 0.10 0.08 74 1018.5
20260504024518 23 73 8.0 17.7 0.00 0.13 0.08 75 1018.4
20260504023018 23 88 6.4 16.1 0.00 0.13 0.08 75 1018.2
20260504021516 23 111 8.0 20.9 0.00 0.13 0.08 75 1017.9
20260504020031 23 105 8.0 19.3 0.00 0.13 0.08 74 1017.6
20260504014521 23 40 1.6 14.5 0.00 0.13 0.08 70 1017.7
20260504013016 23 5 16.1 19.3 0.00 0.13 0.08 70 1017.4
20260504011516 22 355 11.3 19.3 0.00 0.13 0.08 70 1017.4
20260504010014 22 355 14.5 20.9 0.00 0.13 0.08 70 1017.3
20260504004515 23 360 11.3 17.7 0.00 0.13 0.08 70 1017.0
20260504003013 23 327 14.5 20.9 0.00 0.13 0.08 69 1016.9
20260504001522 23 338 11.3 17.7 0.00 0.13 0.08 69 1016.7
20260504000013 23 311 14.5 20.9 0.00 0.13 0.08 68 1016.7
20260503234512 24 329 14.5 17.7 0.00 0.13 0.08 67 1016.6
20260503233018 24 323 12.9 19.3 0.00 0.13 0.08 66 1016.7
20260503231511 25 323 14.5 19.3 0.00 0.13 0.08 65 1016.5
20260503230032 25 344 12.9 19.3 0.00 0.13 0.08 63 1016.4
20260503224512 26 332 14.5 19.3 0.00 0.15 0.08 61 1016.4
20260503223009 26 34 6.4 16.1 0.00 0.15 0.08 58 1016.3
20260503221509 26 46 4.8 14.5 0.00 0.15 0.08 59 1016.3
20260503220008 26 67 1.6 6.4 0.00 0.15 0.08 59 1016.4
20260503214519 26 12 8.0 14.5 0.00 0.28 0.08 60 1016.3
20260503213006 26 53 3.2 17.7 0.00 0.28 0.08 60 1016.3
20260503211505 26 22 6.4 16.1 0.00 0.28 0.08 60 1016.5
20260503210006 26 340 11.3 20.9 0.00 0.28 0.08 60 1016.5
20260503204503 26 9 9.7 19.3 0.00 0.33 0.08 61 1016.6
20260503203005 26 59 6.4 19.3 0.00 0.33 0.08 62 1016.9
20260503201559 25 34 8.0 19.3 0.00 0.33 0.08 62 1016.9
20260503200058 25 31 8.0 16.1 0.00 0.33 0.08 64 1017.3
20260503194607 25 65 6.4 20.9 0.00 1.73 0.08 65 1017.4
20260503193113 25 28 6.4 20.9 0.00 1.73 0.08 65 1017.5
20260503191611 25 41 6.4 16.1 0.00 1.73 0.08 65 1017.7
20260503190054 25 49 8.0 14.5 0.00 1.73 0.08 66 1018.1
20260503184552 24 90 9.7 17.7 0.00 1.73 0.08 66 1018.3
20260503183050 24 76 9.7 20.9 0.00 1.73 0.08 68 1018.5
20260503181551 24 355 6.4 19.3 0.00 1.73 0.08 69 1018.5
20260503180055 24 106 8.0 16.1 0.00 1.73 0.08 71 1018.7
20260503174548 23 78 11.3 24.1 0.00 1.73 0.08 71 1018.8
20260503173040 22 43 11.3 22.5 0.00 1.73 0.08 73 1019.0
20260503171536 22 66 9.7 24.1 0.00 1.73 0.08 73 1019.2